Tiempo cada hora Barroso

Hoy, 8 Marzo, Lunes

Tiempo Temperatura Precipitaciones Viento Presión Humedad
00:00 +18°C° 0.1 mm 0 mps 679 mmHg 97%
01:00 +18°C° 0 mm 0 mps 679 mmHg 97%
02:00 +20°C° 0 mm 1 mps 679 mmHg 96%
03:00 +20°C° 0 mm 1 mps 678 mmHg 97%
04:00 +19°C° 0 mm 1 mps 678 mmHg 97%
05:00 +19°C° 0 mm 1 mps 678 mmHg 97%
06:00 +19°C° 0 mm 1 mps 678 mmHg 97%
07:00 +19°C° 0 mm 2 mps 679 mmHg 95%
08:00 +21°C° 0 mm 2 mps 680 mmHg 93%
09:00 +22°C° 0 mm 3 mps 680 mmHg 91%
10:00 +24°C° 0.3 mm 3 mps 680 mmHg 86%
11:00 +25°C° 0.3 mm 3 mps 680 mmHg 82%
12:00 +26°C° 0.3 mm 4 mps 680 mmHg 77%
13:00 +26°C° 0.6 mm 3 mps 679 mmHg 78%
14:00 +26°C° 0.6 mm 3 mps 679 mmHg 79%
15:00 +26°C° 0.6 mm 3 mps 678 mmHg 80%
16:00 +24°C° 1.2 mm 2 mps 678 mmHg 85%
17:00 +23°C° 1.2 mm 2 mps 678 mmHg 89%
18:00 +22°C° 1.2 mm 1 mps 677 mmHg 93%
19:00 +21°C° 0.7 mm 1 mps 678 mmHg 93%
20:00 +19°C° 0.7 mm 0 mps 678 mmHg 93%
21:00 +18°C° 0.7 mm 0 mps 678 mmHg 94%
22:00 +18°C° 0 mm 0 mps 678 mmHg 94%
23:00 +18°C° 0 mm 0 mps 678 mmHg 95%

Mañana, 9 Marzo, Martes

Tiempo Temperatura Precipitaciones Viento Presión Humedad
00:00 +20°C° 0 mm 1 mps 678 mmHg 96%
01:00 +17°C° 0 mm 0 mps 678 mmHg 96%
02:00 +17°C° 0 mm 0 mps 677 mmHg 96%
03:00 +17°C° 0 mm 0 mps 677 mmHg 97%
04:00 +17°C° 0 mm 0 mps 677 mmHg 97%
05:00 +17°C° 0 mm 0 mps 677 mmHg 97%
06:00 +17°C° 0 mm 0 mps 677 mmHg 96%
07:00 +20°C° 0 mm 1 mps 678 mmHg 95%
08:00 +21°C° 0 mm 1 mps 678 mmHg 93%
09:00 +21°C° 0 mm 2 mps 679 mmHg 92%
10:00 +23°C° 0.1 mm 2 mps 679 mmHg 86%
11:00 +24°C° 0.1 mm 3 mps 679 mmHg 80%
12:00 +26°C° 0.1 mm 3 mps 679 mmHg 74%
13:00 +26°C° 0.2 mm 3 mps 678 mmHg 75%
14:00 +26°C° 0.2 mm 3 mps 678 mmHg 75%
15:00 +26°C° 0.2 mm 2 mps 677 mmHg 76%
16:00 +25°C° 0.8 mm 2 mps 677 mmHg 81%
17:00 +23°C° 0.8 mm 1 mps 677 mmHg 86%
18:00 +22°C° 0.8 mm 1 mps 676 mmHg 91%
19:00 +22°C° 0.9 mm 1 mps 677 mmHg 92%
20:00 +21°C° 0.9 mm 1 mps 677 mmHg 92%
21:00 +20°C° 0.9 mm 1 mps 677 mmHg 93%
22:00 +20°C° 0.3 mm 1 mps 677 mmHg 93%
23:00 +20°C° 0.3 mm 1 mps 677 mmHg 93%

Pasado mañana, 10 Marzo, Miércoles

Tiempo Temperatura Precipitaciones Viento Presión Humedad
00:00 +20°C° 0.3 mm 1 mps 677 mmHg 93%
01:00 +20°C° 0.4 mm 1 mps 677 mmHg 94%
02:00 +19°C° 0.4 mm 1 mps 676 mmHg 94%
03:00 +19°C° 0.4 mm 1 mps 676 mmHg 95%
04:00 +19°C° 0 mm 1 mps 676 mmHg 95%
05:00 +19°C° 0 mm 1 mps 676 mmHg 95%
06:00 +19°C° 0 mm 1 mps 676 mmHg 95%
07:00 +19°C° 0.1 mm 2 mps 677 mmHg 92%
08:00 +21°C° 0.1 mm 3 mps 678 mmHg 90%
09:00 +22°C° 0.1 mm 4 mps 678 mmHg 87%
10:00 +23°C° 0.7 mm 4 mps 678 mmHg 85%
11:00 +25°C° 0.7 mm 4 mps 678 mmHg 84%
12:00 +25°C° 0.7 mm 4 mps 678 mmHg 82%
13:00 +25°C° 0.7 mm 4 mps 677 mmHg 82%
14:00 +25°C° 0.7 mm 4 mps 677 mmHg 83%
15:00 +25°C° 0.7 mm 3 mps 676 mmHg 83%
16:00 +24°C° 0.6 mm 3 mps 676 mmHg 86%
17:00 +23°C° 0.6 mm 2 mps 676 mmHg 89%
18:00 +22°C° 0.6 mm 1 mps 676 mmHg 92%
19:00 +21°C° 0.7 mm 1 mps 677 mmHg 93%
20:00 +21°C° 0.7 mm 1 mps 677 mmHg 93%
21:00 +18°C° 0.7 mm 0 mps 677 mmHg 93%
22:00 +20°C° 0.1 mm 1 mps 677 mmHg 93%
23:00 +20°C° 0.1 mm 1 mps 677 mmHg 94%

11 Marzo, Jueves

Tiempo Temperatura Precipitaciones Viento Presión Humedad
00:00 +20°C° 0.1 mm 1 mps 677 mmHg 94%
01:00 +19°C° 0 mm 1 mps 677 mmHg 94%
02:00 +19°C° 0 mm 1 mps 677 mmHg 95%
03:00 +17°C° 0 mm 0 mps 677 mmHg 95%
04:00 +19°C° 0 mm 1 mps 677 mmHg 96%
05:00 +19°C° 0 mm 1 mps 677 mmHg 96%
06:00 +19°C° 0 mm 1 mps 678 mmHg 97%
07:00 +19°C° 0 mm 2 mps 678 mmHg 95%
08:00 +20°C° 0 mm 3 mps 679 mmHg 93%
09:00 +22°C° 0 mm 3 mps 680 mmHg 91%
10:00 +22°C° 0.1 mm 3 mps 679 mmHg 89%
11:00 +24°C° 0.1 mm 3 mps 679 mmHg 86%
12:00 +24°C° 0.1 mm 3 mps 679 mmHg 83%
13:00 +25°C° 0.1 mm 3 mps 679 mmHg 81%
14:00 +25°C° 0.1 mm 2 mps 679 mmHg 79%
15:00 +26°C° 0.1 mm 2 mps 679 mmHg 77%
16:00 +25°C° 0.2 mm 2 mps 678 mmHg 81%
17:00 +24°C° 0.2 mm 1 mps 678 mmHg 85%
18:00 +21°C° 0.2 mm 0 mps 678 mmHg 89%
19:00 +22°C° 0.4 mm 1 mps 678 mmHg 91%
20:00 +21°C° 0.4 mm 1 mps 679 mmHg 93%
21:00 +20°C° 0.4 mm 1 mps 679 mmHg 95%
22:00 +20°C° 0.1 mm 1 mps 679 mmHg 96%
23:00 +20°C° 0.1 mm 1 mps 679 mmHg 97%

12 Marzo, Viernes

Tiempo Temperatura Precipitaciones Viento Presión Humedad
00:00 +20°C° 0.1 mm 1 mps 679 mmHg 98%
01:00 +19°C° 0 mm 1 mps 679 mmHg 98%
02:00 +19°C° 0 mm 1 mps 678 mmHg 98%
03:00 +19°C° 0 mm 1 mps 678 mmHg 98%
04:00 +19°C° 0 mm 1 mps 678 mmHg 98%
05:00 +19°C° 0 mm 1 mps 678 mmHg 98%
06:00 +19°C° 0 mm 1 mps 679 mmHg 98%
07:00 +20°C° 0 mm 1 mps 679 mmHg 96%
08:00 +21°C° 0 mm 1 mps 680 mmHg 94%
09:00 +23°C° 0 mm 1 mps 680 mmHg 92%
10:00 +22°C° 0.1 mm 0 mps 680 mmHg 88%
11:00 +23°C° 0.1 mm 0 mps 680 mmHg 83%
12:00 +25°C° 0.1 mm 0 mps 681 mmHg 78%
13:00 +25°C° 0.3 mm 0 mps 680 mmHg 76%
14:00 +25°C° 0.3 mm 0 mps 680 mmHg 75%
15:00 +25°C° 0.3 mm 0 mps 679 mmHg 73%
16:00 +26°C° 0.6 mm 1 mps 679 mmHg 79%
17:00 +24°C° 0.6 mm 1 mps 678 mmHg 85%
18:00 +23°C° 0.6 mm 1 mps 678 mmHg 91%
19:00 +21°C° 0.1 mm 2 mps 679 mmHg 93%
20:00 +20°C° 0.1 mm 2 mps 679 mmHg 95%
21:00 +19°C° 0.1 mm 3 mps 679 mmHg 97%
22:00 +19°C° 0 mm 3 mps 680 mmHg 97%
23:00 +19°C° 0 mm 2 mps 680 mmHg 97%

13 Marzo, Sábado

Tiempo Temperatura Precipitaciones Viento Presión Humedad
00:00 +19°C° 0 mm 2 mps 680 mmHg 97%
01:00 +19°C° 0 mm 2 mps 679 mmHg 98%
02:00 +19°C° 0 mm 2 mps 679 mmHg 98%
03:00 +18°C° 0 mm 2 mps 679 mmHg 98%
04:00 +18°C° 0 mm 2 mps 679 mmHg 98%
05:00 +20°C° 0 mm 1 mps 679 mmHg 98%
06:00 +20°C° 0 mm 1 mps 679 mmHg 98%
07:00 +21°C° 0 mm 1 mps 680 mmHg 94%
08:00 +21°C° 0 mm 2 mps 680 mmHg 91%
09:00 +23°C° 0 mm 2 mps 681 mmHg 87%
10:00 +24°C° 0.1 mm 2 mps 681 mmHg 84%
11:00 +25°C° 0.1 mm 1 mps 681 mmHg 81%
12:00 +25°C° 0.1 mm 1 mps 681 mmHg 78%
13:00 +26°C° 0.2 mm 1 mps 680 mmHg 76%
14:00 +26°C° 0.2 mm 1 mps 680 mmHg 74%
15:00 +27°C° 0.2 mm 1 mps 680 mmHg 73%
16:00 +26°C° 0.6 mm 2 mps 679 mmHg 80%
17:00 +24°C° 0.6 mm 2 mps 679 mmHg 87%
18:00 +21°C° 0.6 mm 3 mps 679 mmHg 94%
19:00 +21°C° 0.3 mm 3 mps 679 mmHg 95%
20:00 +20°C° 0.3 mm 3 mps 680 mmHg 96%
21:00 +19°C° 0.3 mm 3 mps 680 mmHg 97%
22:00 +19°C° 0 mm 3 mps 680 mmHg 97%
23:00 +19°C° 0 mm 3 mps 680 mmHg 97%
Mostrar más

Necesitamos Su Consentimiento

Meteoprog y nuestros Proveedores de Servicios pueden almacenar y acceder a sus datos personales como cookies, identificadores de dispositivo u otras tecnologías similares de su dispositivo y procesar dichos datos para personalizar contenido y anuncios, además de ofrecer funciones de redes sociales y analizar el tráfico.

  • Almacenar y/o acceder a información en su dispositivo

    Se puede almacenar o acceder a cookies, identificadores de dispositivo u otra información de su dispositivo para los fines anteriormente indicados.

  • Anuncios y contenido personalizados, medición de anuncios y contenido, percepciones del público, y desarrollo de productos

    Los anuncios y el contenido pueden personalizarse en base a su perfil. Se pueden añadir más datos para personalizar mejor los anuncios y contenidos. Se puede medir el rendimiento de los anuncios y contenidos. Se puede obtener la percepción sobre el público que ha visto los anuncios y contenidos. Dichos datos pueden usarse para desarrollar o mejorar la experiencia del usuario, sistemas y software.

Al hacer clic en ‘Estoy De Acuerdo’ usted permitirá el uso de las cookies, identificadores de dispositivo, balizas web u otras tecnologías similares indicadas. Su configuración puede cambiarse desde el navegador de su dispositivo.

Para ciertos fines, los intereses legítimos pueden ser considerados por encima del consentimiento. Puede leer más sobre ello en nuestra Política de Privacidad y Cookies.